Regional Weather Roundup
Issued by NWS Sterling, VA

Home | Current Version | Previous Version | Graphics & Text | Print | Product List | Glossary On
Versions: 1 2 3 4 5 6 7 8 9 10 11 12 13 14 15 16 17 18 19 20 21 22 23 24 25 26 27 28 29 30 31 32 33 34 35 36 37 38 39 40 41 42 43 44 45 46 47 48 49 50
000
ASUS41 KLWX 212110
RWRLWX

REGIONAL WEATHER ROUNDUP
NATIONAL WEATHER SERVICE BALTIMORE MD/WASHINGTON DC
500 PM EDT MON JUL 21 2014

Note: "FAIR" indicates few or no clouds below 12,000 feet
with no significant weather and/or obstructions to visibility.
 TC=TEMPERATURE CELSIUS

 * =Non NWS site. Station does not report precipitation (e.g. rain,
    snow, etc.), thunder, or fog.

DCZ001-MDZ009-015-VAZ040>042-051-053>054-212200-
WASHINGTON METRO
  /KDAA//-FT BELVOIR

CITY           SKY/WX    TMP DP  RH WIND       PRES   REMARKS
WASHINGTON NAT PTSUNNY   84  65  52 SE7       30.16R
DULLES         PTSUNNY   81  67  62 SE8       30.15S
ANDREWS AFB    PTSUNNY   80  67  64 E8        30.17R
QUANTICO       PTSUNNY   82  68  62 S12       30.16R
COLLEGE PARK*  PTSUNNY   82  64  54 E6        30.16S
LEESBURG*      CLOUDY    82  70  65 SE6       30.16S
MANASSAS*      MOSUNNY   82  70  65 SE7       30.15S
GAITHERSBURG*  CLOUDY    79  66  65 E6        30.20R

$$

MDZ006>007-011-014-212200-
BALTIMORE METRO

CITY           SKY/WX    TMP DP  RH WIND       PRES   REMARKS
BWI AIRPORT    PTSUNNY   82  65  56 E5        30.15F
MD SCIENCE CTR   N/A     82  60  47 MISG      30.16F
MARTIN STATE   MOSUNNY   82  70  65 SE5       30.18S
ANNAPOLIS      SUNNY     80  66  62 E7        30.16F
FORT MEADE*    MOSUNNY   81  64  57 CALM      30.18S

$$

MDZ012-015-019>023-212200-
MARYLAND EASTERN SHORE

CITY           SKY/WX    TMP DP  RH WIND       PRES   REMARKS
OCEAN CITY     MOSUNNY   76  67  73 E7        30.18F
SALISBURY      NOT AVBL
BAY BRIDGE AP*   N/A     82  63  51 S5        30.16S
CAMBRIDGE*     MOSUNNY   82  63  51 SE6       30.16S
EASTON*        MOSUNNY   82  68  61 CALM      30.20S

$$

MDZ017>025-212200-
SOUTHERN MARYLAND

CITY           SKY/WX    TMP DP  RH WIND       PRES   REMARKS
PATUXENT RIVER PTSUNNY   78  68  71 S8        30.16F
ST INIGOES     CLOUDY    79  66  64 SE6       30.16S
LEONARDTOWN*   CLOUDY    79  63  57 SE5       30.18S

$$

MDZ003>005-212200-
NORTH CENTRAL MARYLAND

CITY           SKY/WX    TMP DP  RH WIND       PRES   REMARKS
FREDERICK*     MOSUNNY   81  72  74 VRB3      30.18S
HAGERSTOWN APT PTSUNNY   80  66  62 S6        30.16R
WESTMINSTER*   CLOUDY    81  66  61 E5        30.18S

$$

MDZ501>502-212200-
WESTERN MARYLAND

CITY           SKY/WX    TMP DP  RH WIND       PRES   REMARKS
OAKLAND*       MOSUNNY   75  68  78 CALM      30.23F
CUMBERLAND*    PTSUNNY   90  66  45 E3        30.15F HX  92

$$

VAZ025>031-212200-
SHENANDOAH VALLEY

CITY           SKY/WX    TMP DP  RH WIND       PRES   REMARKS
WINCHESTER*    SUNNY     82  68  61 SE10      30.15S
STAUNTON*      CLOUDY    82  66  60 S7        30.18S

$$

WVZ021-048>050-054>055-212200-
EASTERN WEST VIRGINIA PANHANDLE

CITY           SKY/WX    TMP DP  RH WIND       PRES   REMARKS
MARTINSBURG    SUNNY     82  66  58 VRB6      30.15S
PETERSBURG*    CLOUDY    84  61  44 SE7       30.12S

$$

VAZ036>039-050-212200-
CENTRAL FOOTHILLS

CITY           SKY/WX    TMP DP  RH WIND       PRES   REMARKS
CHARLOTTESVILL CLOUDY    80  70  71 SE6       30.15S
ORANGE*        CLOUDY    79  70  73 E7        30.16S

$$

VAZ055>057-212200-
NORTH AND CENTRAL PIEDMONT

CITY           SKY/WX    TMP DP  RH WIND       PRES   REMARKS
FREDERICKSBRG* PTSUNNY   82  71  67 SE6       30.14S
STAFFORD*      CLOUDY    80  70  70 SE7       30.19S

$$

NCZ024-NYZ072-PAZ021-071-VAZ022-071-212200-
OTHER REGIONAL OBSERVATIONS

CITY           SKY/WX    TMP DP  RH WIND       PRES   REMARKS
NEW YORK CITY  SUNNY     81  62  52 VRB3      30.16F
PHILADELPHIA   CLOUDY    84  58  40 SW5       30.15S
PITTSBURGH     MOSUNNY   85  66  53 CALM      30.12F
ROANOKE        CLOUDY    79  68  69 E9        30.17S
RICHMOND       CLOUDY    82  69  64 SE9       30.16S
RALEIGH        CLOUDY    77  73  88 E6        30.14R FOG

$$

ANZ530>537-212200-
MARINE OBSERVATIONS

STATION/POSITION TIME  TEMP    WIND        PRES
                       AIR SEA DIR/SP/G
                 (UTC) (F)     (DEG/KT/KT) (MB)
THOMAS PT LIGHT  2100   78 81  200/  5/  6 1021.9F
BALT KEY BRIDGE  2100   79     110/  5/  6 1021.1S
COVE POINT       2100   77     190/  8/ 10 1021.4F
LEWISETTA        2100   78 80  120/  8/  9 1021.4R
SOLOMONS ISLAND  2100      82                N/A
PINEY POINT      2100          160/  9/ 10   N/A

$$




USA.gov is the U.S. government's official web portal to all federal, state and local government web resources and services.